Regional Weather Roundup
Issued by NWS

Home | Current Version | Previous Version | Graphics & Text | Print | Product List | Glossary On
Versions: 1 2 3 4 5 6 7 8 9 10 11 12 13 14 15 16 17 18 19 20 21 22 23 24 25 26 27 28 29 30 31 32 33 34 35 36 37 38 39 40 41 42 43 44 45 46 47 48 49 50
000
ASUS45 KPSR 271100
RWRAZ

PRELIMINARY ARIZONA REGIONAL HOURLY WEATHER ROUNDUP
NATIONAL WEATHER SERVICE PHOENIX AZ
400 AM MST THU NOV 27 2014

NOTE: FAIR INDICATES FEW OR NO CLOUDS BELOW 12,000 FEET WITH NO
SIGNIFICANT WEATHER AND/OR OBSTRUCTIONS TO VISIBILITY.

AZZ001>003-036-271200-
NORTHWEST ARIZONA

CITY           SKY/WX    TMP DP  RH WIND       PRES   REMARKS
KINGMAN        PTCLDY    39  16  39 VRB3      30.31F
$$

AZZ004>008-015-016-018-271200-
NORTH CENTRAL ARIZONA

CITY           SKY/WX    TMP DP  RH WIND       PRES   REMARKS
GRAND CANYON   PTCLDY    17   7  64 CALM      30.47F
PRESCOTT       PTCLDY    32  16  51 S3        30.38F
FLAGSTAFF      NOT AVBL
PAYSON         CLEAR     52  14  22 SE5       30.38S
PAGE           PTCLDY    38  17  42 W3        30.42R
$$

AZZ009>014-017-271200-
NORTHEAST ARIZONA

CITY           SKY/WX    TMP DP  RH WIND       PRES   REMARKS
WINSLOW        NOT AVBL
SAINT JOHNS    MOCLDY    24  15  68 S3        30.45F
SHOW LOW       PTCLDY    34  14  44 NE5       30.46F WCI  30
$$

AZZ023-271200-
GREATER PHOENIX AREA

CITY           SKY/WX    TMP DP  RH WIND       PRES   REMARKS
PHOENIX        CLEAR     50  28  42 SE6       30.18S
LUKE AFB       CLEAR     45  27  49 E5        30.18S
DEER VALLEY    CLEAR     49  19  30 SE5       30.18F
SCOTTSDALE     CLEAR     51  25  36 NE3       30.20S
$$

AZZ027-028-271200-
SOUTHWEST MARICOPA COUNTY AND PINAL COUNTY

CITY           SKY/WX    TMP DP  RH WIND       PRES   REMARKS
CASA GRANDE    CLEAR     41  12  30 CALM      30.20S
$$

AZZ503-504-507>509-271200-
SOUTHEAST ARIZONA

CITY           SKY/WX    TMP DP  RH WIND       PRES   REMARKS
TUCSON         CLEAR     46  18  32 S8        30.23F
NOGALES        CLEAR     43  20  39 E6        30.25F
SIERRA VISTA   CLEAR     48  21  34 S8        30.31F
SAFFORD        CLEAR     43  18  36 SE10      30.32R
$$

AZZ020-021-025-026-031-271200-
SOUTHWEST ARIZONA

CITY           SKY/WX    TMP DP  RH WIND       PRES   REMARKS
YUMA           CLEAR     55  21  26 NE3       30.13F
$$

CAZ031-033-041-043-047-048-061-271200-
SOUTHERN CALIFORNIA

CITY           SKY/WX    TMP DP  RH WIND       PRES   REMARKS
DOWNTOWN L.A.  CLEAR     63  23  21 CALM      30.09F
L.A. AIRPORT   CLEAR     58  28  32 E5        30.09F
SAN DIEGO      CLEAR     58  31  35 CALM      30.09F
BURBANK        CLEAR     54  22  28 CALM      30.11F
ONTARIO        CLEAR     53  29  39 NE3       30.13F
RIVERSIDE      CLEAR     56  27  32 NE7       30.14F
PALM SPRINGS   CLEAR     53  28  38 CALM      30.17F
EL CENTRO NAS  CLEAR     48  21  34 W7        30.13F
IMPERIAL       CLEAR     48  26  42 W7        30.13F
BLYTHE         CLEAR     55  15  20 W6        30.17F
$$

NVZ020-UTZ003-271200-
SOUTHERN NEVADA-UTAH

CITY           SKY/WX    TMP DP  RH WIND       PRES   REMARKS
LAS VEGAS      NOT AVBL
SALT LAKE CITY PTCLDY    45  27  49 SE14      30.30F
$$

NMZ009-TXZ055-271200-
NEW MEXICO-WEST TEXAS

CITY           SKY/WX    TMP DP  RH WIND       PRES   REMARKS
ALBUQUERQUE    PTCLDY    39  23  52 NE6       30.44F WCI  35
EL PASO        PTCLDY    36  18  48 N3        30.36S
$$


........................KEY........................
SKY/WX - SKY CONDITION/WEATHER
TMP    - TEMPERATURE IN FAHRENHEIT
DP     - DEW POINT IN FAHRENHEIT
RH     - RELATIVE HUMIDITY IN PERCENT
WIND   - DIRECTION AND SPEED IN MILES PER HOUR (MPH)
VRB    - VARIABLE WIND DIRECTION
PRES   - MEAN SEA LEVEL PRESSURE IN INCHES OF MERCURY
         F - FALLING PRESSURE   R - RISING PRESSURE
         S - STEADY PRESSURE
VSB    - VISIBILITY IN MILES
HX     - HEAT INDEX IN FAHRENHEIT
WCI    - WIND CHILL INDEX IN FAHRENHEIT
TC     - TEMPERATURE IN CELSIUS WHICH IS ALSO KNOWN AS
         TEMPERATURE IN CENTIGRADE
AFB    - AIR FORCE BASE
         LUKE AFB IS LUKE AIR FORCE BASE
         DAVIS-MONTHAN IS DAVIS-MONTHAN AIR FORCE BASE
NAS    - NAVAL AIR STATION
         EL CENTRO NAS IS EL CENTRO NAVAL AIR STATION
N/A    - NOT AVAILABLE



USA.gov is the U.S. government's official web portal to all federal, state and local government web resources and services.